Flag for Germany Weather past 2 weeks in Bad Mergentheim, Baden-Württemberg, Germany

Now
88 °F

Passing clouds.


Feels Like: 88 °F
Forecast: 67 / 96 °F
Wind: 12 mph from Southeast

Location: Niederstetten

Current Time: Jul 4, 2015 at 12:14:52 PM

Latest Report: Jul 4, 2015 at 11:20 AM


Visibility: N/A

Pressure: 30.18 "Hg

Humidity: 40%

Dew point: 61 °F

Location of Bad MergentheimLocation

Historic Weather in Bad Mergentheim — Graph

°F

Bad Mergentheim temperature yesterday

Maximum temperature yesterday: 91 °F (at 3:20 PM)
Minimum temperature yesterday: 70 °F (at 5:20 AM)
Average temperature yesterday: 81 °F

Past Weeks' High & Low Weather Summary

 TemperatureHumidityPressure
High91 °F (Jul 3, 3:20 PM)100% (Jun 22, 6:20 AM)30.27 "Hg (Jun 22, 6:20 AM)
Low46 °F (Jun 23, 6:20 AM)23% (Jun 30, 6:20 PM)29.71 "Hg (Jun 23, 12:20 AM)
Average64 °F66%30.12 "Hg
* Reported Jun 19 10:20 AM — Jul 4 10:20 AM, Bad Mergentheim, Weather by CustomWeather, © 2015

Note: Actual official high and low records may vary slightly from our data, if they occured in-between our weather recording intervals... More about our weather records

Advertising

Bad Mergentheim weather history for previous 24 hours

 ConditionsComfort  
Time TempWeatherWind HumidityBarometerVisibility
10:20 AM
Sat, Jul 4
86 °FPassing clouds.13 mph46%30.21 "HgN/A
9:20 AM82 °FScattered clouds.12 mph55%30.21 "HgN/A
8:20 AM79 °FPassing clouds.8 mph58%30.21 "HgN/A
7:20 AM75 °FPassing clouds.8 mph65%30.21 "HgN/A
6:20 AM72 °FMild.8 mph69%30.21 "HgN/A
5:20 AM72 °FPassing clouds.7 mph69%30.21 "HgN/A
4:20 AM72 °FMild.7 mph73%30.21 "HgN/A
3:20 AM73 °FMild.7 mph69%30.21 "HgN/A
2:20 AM75 °FPassing clouds.6 mph65%30.21 "HgN/A
1:20 AM77 °FPassing clouds.5 mph65%30.24 "HgN/A
12:20 AM77 °FPassing clouds.6 mph65%30.24 "HgN/A
11:20 PM
Fri, Jul 3
79 °FPassing clouds.7 mph61%30.24 "HgN/A
10:20 PM79 °FScattered clouds.6 mph65%30.24 "HgN/A
9:20 PM82 °FPartly sunny.6 mph58%30.24 "HgN/A
8:20 PM88 °FPartly sunny.5 mph43%30.24 "HgN/A
7:20 PM90 °FPartly sunny.6 mph41%30.24 "HgN/A
6:20 PM91 °FPartly sunny.7 mph41%30.24 "HgN/A
5:20 PM91 °FPartly sunny.5 mph38%30.24 "HgN/A
4:20 PM91 °FPartly sunny.5 mph36%30.24 "HgN/A
3:20 PM91 °FScattered clouds.6 mph38%30.24 "HgN/A
2:20 PM90 °FPassing clouds.5 mph41%30.27 "HgN/A
1:20 PM90 °FPassing clouds.3 mph46%30.27 "HgN/A
12:20 PM88 °FPassing clouds.3 mph46%30.27 "HgN/A
Weather by CustomWeather, © 2015

See weather overviewHow to use our weather pages